{"data":{"norad_id":45462,"intl_designator":"2020-021C","name":"YAOGAN-30 07C","alt_names":[],"object_type":"PAYLOAD","status":"ACTIVE","operator":null,"country":"PRC","launch_date":"2020-03-24","launch_site_code":"XICLF","launch_vehicle":null,"mission":null,"orbit_class":"UNKNOWN","rcs_meters":null,"size_class":null,"mass_kg":null,"dimensions":null,"purposes":[],"wikipedia_slug":null,"has_3d_model":false,"image_url":null,"decayed_at":null,"tle_current":{"epoch":"2026-09-20T04:25:57.839808Z","epoch_age_seconds":95494,"freshness":"FRESH","line1":"1 45462U 20021C   26263.18469722  .00001762  00000+0  13033-3 0  9992","line2":"2 45462  34.9970 349.3757 0000743 173.2913 186.7805 15.03045557354713","mean_motion":15.03045557,"eccentricity":7.43e-5,"inclination_deg":34.997,"raan_deg":349.3757,"arg_perigee_deg":173.2913,"mean_anomaly_deg":186.7805,"bstar":0.00013033,"rev_number":35471,"period_min":95.80547930125,"perigee_km":556.99623960297,"apogee_km":558.02687697873,"semimajor_km":6935.6485582909,"source":"CELESTRAK","updated_at":"2026-09-20T09:00:14.664695Z"}}}